Location: Bucharest
(44.4268°N, 26.1025°E)
Time: 01:47:40
(UTC+03:00)

ESTCUBE 1 - Pass Details

Date: 29 June 2022
Orbit: 645 x 657 km, 97.9° (Epoch: 16 August)

Event Time Altitude Azimuth Distance (km) Brightness Sun altitude
Exits shadow 00:50:27 10° 251° (WSW) 2,048 ? -22.0°
Reaches altitude 10° 00:50:29 10° 251° (WSW) 2,044 ? -22.0°
Maximum altitude 00:52:02 12° 272° (W) 1,939 ? -22.0°
Drops below altitude 10° 00:53:36 10° 292° (WNW) 2,051 ? -22.1°
Sets 00:57:23 0° 325° (NW) 2,971 ? -22.1°
